Multibeam Report for RR1212


Ship Name: Roger Revelle
Chief Scientist: Becker, Joseph
Naval Research Laboratory
Source Organization: Rolling Deck to Repository
Start Date: 2012-09-27
End Date: 2012-10-01


View ISO Metadata

Visit the full NCEI Bathymetry Viewer


Multibeam Bathymetry

Cruise Details

Project: The Equatorial Mixed Layer and Upper Ocean Mixing
Instrument: Kongsberg EM122

Data Quality

Number of Files: 222
Number of Records: 27094
BATHYMETRY DATA Quantity Percentage
Number of Beams 11632032 100%
Number of Good Beams 8708757 74.87%
Number of Zero Beams 0 0%
Number of Flagged Beams 2923275 25.13%
AMPLITUDE DATA Quantity Percentage
Number of Beams 11632032 100%
Number of Good Beams 8708757 74.87%
Number of Zero Beams 0 0%
Number of Flagged Beams 2923275 25.13%
SIDESCAN DATA Quantity Percentage
Number of Pixels 27572224 100%
Number of Good Pixels 11568148 41.96%
Number of Zero Pixels 0 0%
Number of Flagged Pixels 16004076 58.04%

Navigation Totals

Total Time: 101.7757 hours
Total Track Length: 2197.6182 km
Average Speed: 21.593 km/hr (11.6593 knots)

Cruise Bounds

Northern Extent: -13.806881
Southern Extent: -17.533476
Western Extent: -171.54071
Eastern Extent: -149.58643

Limits

Minimum Sonar Depth 1.8745 Maximum Sonar Depth 8.9241
Minimum Altitude 86.2718 Maximum Altitude 11093.042
Minimum Depth 73.9024 Maximum Depth 11146.96
Minimum Amplitude 0 Maximum Amplitude 10
Minimum Sidescan 0 Maximum Sidescan 205.15

File Information

Full Resolution Bathymetry as collected (raw): 219

Files File Size Description
0000_20120927_020136_revelle.all.mb58.gz 10.14MB Kongsberg multibeam vendor format
0001_20120927_023143_revelle.all.mb58.gz 3.13MB Kongsberg multibeam vendor format
0002_20120927_024500_revelle.all.mb58.gz 7.44MB Kongsberg multibeam vendor format
0003_20120927_031500_revelle.all.mb58.gz 6.64MB Kongsberg multibeam vendor format
0004_20120927_034459_revelle.all.mb58.gz 6.79MB Kongsberg multibeam vendor format
0005_20120927_041458_revelle.all.mb58.gz 6.88MB Kongsberg multibeam vendor format
0006_20120927_044507_revelle.all.mb58.gz 6.85MB Kongsberg multibeam vendor format
0007_20120927_051459_revelle.all.mb58.gz 6.99MB Kongsberg multibeam vendor format
0008_20120927_054503_revelle.all.mb58.gz 7.05MB Kongsberg multibeam vendor format
0009_20120927_061504_revelle.all.mb58.gz 7.56MB Kongsberg multibeam vendor format
0010_20120927_064504_revelle.all.mb58.gz 7.31MB Kongsberg multibeam vendor format
0011_20120927_071510_revelle.all.mb58.gz 8.13MB Kongsberg multibeam vendor format
0012_20120927_074510_revelle.all.mb58.gz 7.78MB Kongsberg multibeam vendor format
0013_20120927_081504_revelle.all.mb58.gz 8.48MB Kongsberg multibeam vendor format
0014_20120927_084505_revelle.all.mb58.gz 8.37MB Kongsberg multibeam vendor format
0015_20120927_091459_revelle.all.mb58.gz 8.55MB Kongsberg multibeam vendor format
0016_20120927_094503_revelle.all.mb58.gz 7.40MB Kongsberg multibeam vendor format
0017_20120927_101509_revelle.all.mb58.gz 7.44MB Kongsberg multibeam vendor format
0018_20120927_104459_revelle.all.mb58.gz 7.79MB Kongsberg multibeam vendor format
0019_20120927_111505_revelle.all.mb58.gz 8.00MB Kongsberg multibeam vendor format
0020_20120927_114501_revelle.all.mb58.gz 8.16MB Kongsberg multibeam vendor format
0021_20120927_121505_revelle.all.mb58.gz 7.93MB Kongsberg multibeam vendor format
0022_20120927_124509_revelle.all.mb58.gz 8.27MB Kongsberg multibeam vendor format
0023_20120927_131501_revelle.all.mb58.gz 7.73MB Kongsberg multibeam vendor format
0024_20120927_134510_revelle.all.mb58.gz 7.81MB Kongsberg multibeam vendor format
0025_20120927_141506_revelle.all.mb58.gz 9.97MB Kongsberg multibeam vendor format
0026_20120927_144503_revelle.all.mb58.gz 8.47MB Kongsberg multibeam vendor format
0027_20120927_151510_revelle.all.mb58.gz 7.23MB Kongsberg multibeam vendor format
0028_20120927_154513_revelle.all.mb58.gz 6.58MB Kongsberg multibeam vendor format
0029_20120927_161507_revelle.all.mb58.gz 6.45MB Kongsberg multibeam vendor format
0030_20120927_164503_revelle.all.mb58.gz 6.67MB Kongsberg multibeam vendor format
0031_20120927_171509_revelle.all.mb58.gz 6.07MB Kongsberg multibeam vendor format
0032_20120927_174508_revelle.all.mb58.gz 6.86MB Kongsberg multibeam vendor format
0033_20120927_181505_revelle.all.mb58.gz 6.53MB Kongsberg multibeam vendor format
0034_20120927_184510_revelle.all.mb58.gz 6.56MB Kongsberg multibeam vendor format
0035_20120927_191500_revelle.all.mb58.gz 5.81MB Kongsberg multibeam vendor format
0036_20120927_194501_revelle.all.mb58.gz 5.48MB Kongsberg multibeam vendor format
0037_20120927_201511_revelle.all.mb58.gz 5.94MB Kongsberg multibeam vendor format
0038_20120927_204512_revelle.all.mb58.gz 6.07MB Kongsberg multibeam vendor format
0039_20120927_211502_revelle.all.mb58.gz 5.77MB Kongsberg multibeam vendor format
0040_20120927_214506_revelle.all.mb58.gz 6.39MB Kongsberg multibeam vendor format
0041_20120927_221506_revelle.all.mb58.gz 6.15MB Kongsberg multibeam vendor format
0042_20120927_224501_revelle.all.mb58.gz 5.13MB Kongsberg multibeam vendor format
0043_20120927_231503_revelle.all.mb58.gz 5.52MB Kongsberg multibeam vendor format
0044_20120927_234510_revelle.all.mb58.gz 6.30MB Kongsberg multibeam vendor format
0045_20120928_001511_revelle.all.mb58.gz 5.51MB Kongsberg multibeam vendor format
0046_20120928_004508_revelle.all.mb58.gz 5.67MB Kongsberg multibeam vendor format
0047_20120928_011511_revelle.all.mb58.gz 5.51MB Kongsberg multibeam vendor format
0048_20120928_014505_revelle.all.mb58.gz 6.13MB Kongsberg multibeam vendor format
0049_20120928_021505_revelle.all.mb58.gz 4.35MB Kongsberg multibeam vendor format
0050_20120928_024513_revelle.all.mb58.gz 5.63MB Kongsberg multibeam vendor format
0051_20120928_031509_revelle.all.mb58.gz 5.39MB Kongsberg multibeam vendor format
0052_20120928_034504_revelle.all.mb58.gz 5.66MB Kongsberg multibeam vendor format
0053_20120928_041513_revelle.all.mb58.gz 5.93MB Kongsberg multibeam vendor format
0054_20120928_044513_revelle.all.mb58.gz 5.95MB Kongsberg multibeam vendor format
0055_20120928_051506_revelle.all.mb58.gz 5.91MB Kongsberg multibeam vendor format
0056_20120928_054511_revelle.all.mb58.gz 5.27MB Kongsberg multibeam vendor format
0057_20120928_061506_revelle.all.mb58.gz 5.68MB Kongsberg multibeam vendor format
0058_20120928_064509_revelle.all.mb58.gz 4.08MB Kongsberg multibeam vendor format
0059_20120928_071503_revelle.all.mb58.gz 5.47MB Kongsberg multibeam vendor format
0060_20120928_074508_revelle.all.mb58.gz 4.03MB Kongsberg multibeam vendor format
0061_20120928_081506_revelle.all.mb58.gz 5.01MB Kongsberg multibeam vendor format
0062_20120928_084513_revelle.all.mb58.gz 3.92MB Kongsberg multibeam vendor format
0063_20120928_091508_revelle.all.mb58.gz 366.4KB Kongsberg multibeam vendor format
0064_20120928_091825_revelle.all.mb58.gz 3.90MB Kongsberg multibeam vendor format
0065_20120928_094830_revelle.all.mb58.gz 5.41MB Kongsberg multibeam vendor format
0066_20120928_101824_revelle.all.mb58.gz 4.76MB Kongsberg multibeam vendor format
0067_20120928_104830_revelle.all.mb58.gz 3.97MB Kongsberg multibeam vendor format
0068_20120928_111826_revelle.all.mb58.gz 4.22MB Kongsberg multibeam vendor format
0069_20120928_114824_revelle.all.mb58.gz 4.42MB Kongsberg multibeam vendor format
0070_20120928_121831_revelle.all.mb58.gz 4.30MB Kongsberg multibeam vendor format
0071_20120928_124827_revelle.all.mb58.gz 4.12MB Kongsberg multibeam vendor format
0072_20120928_131832_revelle.all.mb58.gz 4.47MB Kongsberg multibeam vendor format
0073_20120928_134829_revelle.all.mb58.gz 4.18MB Kongsberg multibeam vendor format
0074_20120928_141839_revelle.all.mb58.gz 3.88MB Kongsberg multibeam vendor format
0075_20120928_144827_revelle.all.mb58.gz 4.17MB Kongsberg multibeam vendor format
0076_20120928_151834_revelle.all.mb58.gz 5.47MB Kongsberg multibeam vendor format
0077_20120928_154828_revelle.all.mb58.gz 4.78MB Kongsberg multibeam vendor format
0078_20120928_161824_revelle.all.mb58.gz 5.56MB Kongsberg multibeam vendor format
0079_20120928_164840_revelle.all.mb58.gz 4.99MB Kongsberg multibeam vendor format
0080_20120928_171829_revelle.all.mb58.gz 3.51MB Kongsberg multibeam vendor format
0081_20120928_174833_revelle.all.mb58.gz 3.26MB Kongsberg multibeam vendor format
0082_20120928_181828_revelle.all.mb58.gz 3.70MB Kongsberg multibeam vendor format
0083_20120928_184833_revelle.all.mb58.gz 4.31MB Kongsberg multibeam vendor format
0084_20120928_191831_revelle.all.mb58.gz 4.93MB Kongsberg multibeam vendor format
0085_20120928_194828_revelle.all.mb58.gz 5.06MB Kongsberg multibeam vendor format
0086_20120928_201825_revelle.all.mb58.gz 5.35MB Kongsberg multibeam vendor format
0087_20120928_204824_revelle.all.mb58.gz 5.18MB Kongsberg multibeam vendor format
0088_20120928_211828_revelle.all.mb58.gz 5.76MB Kongsberg multibeam vendor format
0089_20120928_214825_revelle.all.mb58.gz 6.39MB Kongsberg multibeam vendor format
0090_20120928_221834_revelle.all.mb58.gz 4.98MB Kongsberg multibeam vendor format
0091_20120928_224830_revelle.all.mb58.gz 4.86MB Kongsberg multibeam vendor format
0092_20120928_231834_revelle.all.mb58.gz 4.94MB Kongsberg multibeam vendor format
0093_20120928_234834_revelle.all.mb58.gz 4.49MB Kongsberg multibeam vendor format
0094_20120929_001831_revelle.all.mb58.gz 5.48MB Kongsberg multibeam vendor format
0095_20120929_004831_revelle.all.mb58.gz 3.51MB Kongsberg multibeam vendor format
0096_20120929_011831_revelle.all.mb58.gz 4.13MB Kongsberg multibeam vendor format
0097_20120929_014827_revelle.all.mb58.gz 5.06MB Kongsberg multibeam vendor format
0098_20120929_021827_revelle.all.mb58.gz 4.98MB Kongsberg multibeam vendor format
0099_20120929_024826_revelle.all.mb58.gz 6.10MB Kongsberg multibeam vendor format
0100_20120929_031825_revelle.all.mb58.gz 4.72MB Kongsberg multibeam vendor format
0101_20120929_034825_revelle.all.mb58.gz 5.73MB Kongsberg multibeam vendor format
0102_20120929_041829_revelle.all.mb58.gz 5.03MB Kongsberg multibeam vendor format
0103_20120929_044839_revelle.all.mb58.gz 4.74MB Kongsberg multibeam vendor format
0104_20120929_051828_revelle.all.mb58.gz 3.23MB Kongsberg multibeam vendor format
0105_20120929_054838_revelle.all.mb58.gz 1.67MB Kongsberg multibeam vendor format
0106_20120929_055910_revelle.all.mb58.gz 4.53MB Kongsberg multibeam vendor format
0107_20120929_062851_revelle.all.mb58.gz 3.58MB Kongsberg multibeam vendor format
0108_20120929_065900_revelle.all.mb58.gz 3.44MB Kongsberg multibeam vendor format
0109_20120929_072848_revelle.all.mb58.gz 3.09MB Kongsberg multibeam vendor format
0110_20120929_075906_revelle.all.mb58.gz 3.49MB Kongsberg multibeam vendor format
0111_20120929_082856_revelle.all.mb58.gz 3.26MB Kongsberg multibeam vendor format
0112_20120929_085906_revelle.all.mb58.gz 3.20MB Kongsberg multibeam vendor format
0113_20120929_092858_revelle.all.mb58.gz 3.64MB Kongsberg multibeam vendor format
0114_20120929_095849_revelle.all.mb58.gz 3.90MB Kongsberg multibeam vendor format
0115_20120929_102901_revelle.all.mb58.gz 3.51MB Kongsberg multibeam vendor format
0116_20120929_105858_revelle.all.mb58.gz 3.04MB Kongsberg multibeam vendor format
0117_20120929_112848_revelle.all.mb58.gz 2.99MB Kongsberg multibeam vendor format
0118_20120929_115854_revelle.all.mb58.gz 3.61MB Kongsberg multibeam vendor format
0119_20120929_122849_revelle.all.mb58.gz 3.44MB Kongsberg multibeam vendor format
0120_20120929_125906_revelle.all.mb58.gz 3.17MB Kongsberg multibeam vendor format
0121_20120929_132857_revelle.all.mb58.gz 3.97MB Kongsberg multibeam vendor format
0122_20120929_135907_revelle.all.mb58.gz 3.39MB Kongsberg multibeam vendor format
0123_20120929_142859_revelle.all.mb58.gz 3.15MB Kongsberg multibeam vendor format
0124_20120929_145906_revelle.all.mb58.gz 3.33MB Kongsberg multibeam vendor format
0125_20120929_152905_revelle.all.mb58.gz 3.53MB Kongsberg multibeam vendor format
0126_20120929_155853_revelle.all.mb58.gz 3.38MB Kongsberg multibeam vendor format
0127_20120929_162900_revelle.all.mb58.gz 3.32MB Kongsberg multibeam vendor format
0128_20120929_165859_revelle.all.mb58.gz 3.16MB Kongsberg multibeam vendor format
0129_20120929_172850_revelle.all.mb58.gz 3.32MB Kongsberg multibeam vendor format
0130_20120929_175854_revelle.all.mb58.gz 3.78MB Kongsberg multibeam vendor format
0131_20120929_182903_revelle.all.mb58.gz 4.05MB Kongsberg multibeam vendor format
0132_20120929_185908_revelle.all.mb58.gz 4.03MB Kongsberg multibeam vendor format
0133_20120929_192852_revelle.all.mb58.gz 2.97MB Kongsberg multibeam vendor format
0134_20120929_195909_revelle.all.mb58.gz 3.22MB Kongsberg multibeam vendor format
0135_20120929_202907_revelle.all.mb58.gz 3.02MB Kongsberg multibeam vendor format
0136_20120929_205854_revelle.all.mb58.gz 4.03MB Kongsberg multibeam vendor format
0137_20120929_212856_revelle.all.mb58.gz 3.14MB Kongsberg multibeam vendor format
0138_20120929_215904_revelle.all.mb58.gz 3.49MB Kongsberg multibeam vendor format
0139_20120929_222902_revelle.all.mb58.gz 3.26MB Kongsberg multibeam vendor format
0140_20120929_225857_revelle.all.mb58.gz 2.80MB Kongsberg multibeam vendor format
0141_20120929_232904_revelle.all.mb58.gz 2.91MB Kongsberg multibeam vendor format
0142_20120929_235903_revelle.all.mb58.gz 0.91MB Kongsberg multibeam vendor format
0143_20120930_000733_revelle.all.mb58.gz 3.39MB Kongsberg multibeam vendor format
0144_20120930_003715_revelle.all.mb58.gz 2.93MB Kongsberg multibeam vendor format
0145_20120930_010720_revelle.all.mb58.gz 4.16MB Kongsberg multibeam vendor format
0146_20120930_013727_revelle.all.mb58.gz 3.46MB Kongsberg multibeam vendor format
0147_20120930_020715_revelle.all.mb58.gz 4.27MB Kongsberg multibeam vendor format
0148_20120930_023717_revelle.all.mb58.gz 4.48MB Kongsberg multibeam vendor format
0149_20120930_030726_revelle.all.mb58.gz 4.64MB Kongsberg multibeam vendor format
0150_20120930_033716_revelle.all.mb58.gz 4.88MB Kongsberg multibeam vendor format
0151_20120930_040718_revelle.all.mb58.gz 5.14MB Kongsberg multibeam vendor format
0152_20120930_043723_revelle.all.mb58.gz 3.21MB Kongsberg multibeam vendor format
0153_20120930_050725_revelle.all.mb58.gz 5.13MB Kongsberg multibeam vendor format
0154_20120930_053714_revelle.all.mb58.gz 4.54MB Kongsberg multibeam vendor format
0155_20120930_060727_revelle.all.mb58.gz 4.00MB Kongsberg multibeam vendor format
0156_20120930_083125_revelle.all.mb58.gz 4.93MB Kongsberg multibeam vendor format
0157_20120930_090127_revelle.all.mb58.gz 4.86MB Kongsberg multibeam vendor format
0158_20120930_093136_revelle.all.mb58.gz 5.05MB Kongsberg multibeam vendor format
0159_20120930_100125_revelle.all.mb58.gz 5.10MB Kongsberg multibeam vendor format
0160_20120930_103126_revelle.all.mb58.gz 4.51MB Kongsberg multibeam vendor format
0161_20120930_110127_revelle.all.mb58.gz 4.48MB Kongsberg multibeam vendor format
0162_20120930_113128_revelle.all.mb58.gz 4.55MB Kongsberg multibeam vendor format
0163_20120930_120125_revelle.all.mb58.gz 5.03MB Kongsberg multibeam vendor format
0164_20120930_123135_revelle.all.mb58.gz 4.49MB Kongsberg multibeam vendor format
0165_20120930_130131_revelle.all.mb58.gz 3.73MB Kongsberg multibeam vendor format
0166_20120930_133126_revelle.all.mb58.gz 3.61MB Kongsberg multibeam vendor format
0167_20120930_140140_revelle.all.mb58.gz 0.76MB Kongsberg multibeam vendor format
0168_20120930_144834_revelle.all.mb58.gz 4.94MB Kongsberg multibeam vendor format
0169_20120930_151819_revelle.all.mb58.gz 5.07MB Kongsberg multibeam vendor format
0170_20120930_154822_revelle.all.mb58.gz 4.98MB Kongsberg multibeam vendor format
0171_20120930_161825_revelle.all.mb58.gz 5.11MB Kongsberg multibeam vendor format
0172_20120930_164824_revelle.all.mb58.gz 4.63MB Kongsberg multibeam vendor format
0173_20120930_171820_revelle.all.mb58.gz 5.00MB Kongsberg multibeam vendor format
0174_20120930_174821_revelle.all.mb58.gz 5.18MB Kongsberg multibeam vendor format
0175_20120930_181819_revelle.all.mb58.gz 4.50MB Kongsberg multibeam vendor format
0176_20120930_184824_revelle.all.mb58.gz 4.10MB Kongsberg multibeam vendor format
0177_20120930_191821_revelle.all.mb58.gz 4.67MB Kongsberg multibeam vendor format
0178_20120930_194831_revelle.all.mb58.gz 4.07MB Kongsberg multibeam vendor format
0179_20120930_201823_revelle.all.mb58.gz 4.38MB Kongsberg multibeam vendor format
0180_20120930_204820_revelle.all.mb58.gz 4.16MB Kongsberg multibeam vendor format
0181_20120930_211830_revelle.all.mb58.gz 3.84MB Kongsberg multibeam vendor format
0182_20120930_214826_revelle.all.mb58.gz 3.91MB Kongsberg multibeam vendor format
0183_20120930_221820_revelle.all.mb58.gz 4.13MB Kongsberg multibeam vendor format
0184_20120930_224822_revelle.all.mb58.gz 4.78MB Kongsberg multibeam vendor format
0185_20120930_231825_revelle.all.mb58.gz 5.42MB Kongsberg multibeam vendor format
0186_20120930_234822_revelle.all.mb58.gz 5.40MB Kongsberg multibeam vendor format
0187_20121001_001823_revelle.all.mb58.gz 5.17MB Kongsberg multibeam vendor format
0188_20121001_004824_revelle.all.mb58.gz 5.35MB Kongsberg multibeam vendor format
0189_20121001_011824_revelle.all.mb58.gz 3.88MB Kongsberg multibeam vendor format
0190_20121001_014639_revelle.all.mb58.gz 4.71MB Kongsberg multibeam vendor format
0191_20121001_021641_revelle.all.mb58.gz 0.76MB Kongsberg multibeam vendor format
0192_20121001_035701_revelle.all.mb58.gz 5.05MB Kongsberg multibeam vendor format
0193_20121001_042715_revelle.all.mb58.gz 6.97MB Kongsberg multibeam vendor format
0194_20121001_045714_revelle.all.mb58.gz 7.88MB Kongsberg multibeam vendor format
0195_20121001_052702_revelle.all.mb58.gz 8.42MB Kongsberg multibeam vendor format
0196_20121001_055709_revelle.all.mb58.gz 8.52MB Kongsberg multibeam vendor format
0197_20121001_062703_revelle.all.mb58.gz 9.89MB Kongsberg multibeam vendor format
0198_20121001_065703_revelle.all.mb58.gz 14.49MB Kongsberg multibeam vendor format
0199_20121001_072703_revelle.all.mb58.gz 12.51MB Kongsberg multibeam vendor format
0200_20121001_075705_revelle.all.mb58.gz 9.09MB Kongsberg multibeam vendor format
0201_20121001_082712_revelle.all.mb58.gz 6.83MB Kongsberg multibeam vendor format
0202_20121001_085706_revelle.all.mb58.gz 6.88MB Kongsberg multibeam vendor format
0203_20121001_092710_revelle.all.mb58.gz 7.15MB Kongsberg multibeam vendor format
0204_20121001_095711_revelle.all.mb58.gz 7.05MB Kongsberg multibeam vendor format
0205_20121001_102711_revelle.all.mb58.gz 6.92MB Kongsberg multibeam vendor format
0206_20121001_105707_revelle.all.mb58.gz 6.50MB Kongsberg multibeam vendor format
0207_20121001_112715_revelle.all.mb58.gz 6.01MB Kongsberg multibeam vendor format
0208_20121001_115717_revelle.all.mb58.gz 9.61MB Kongsberg multibeam vendor format
0209_20121001_122702_revelle.all.mb58.gz 7.34MB Kongsberg multibeam vendor format
0210_20121001_125707_revelle.all.mb58.gz 9.73MB Kongsberg multibeam vendor format
0211_20121001_132707_revelle.all.mb58.gz 10.35MB Kongsberg multibeam vendor format
0212_20121001_135706_revelle.all.mb58.gz 5.67MB Kongsberg multibeam vendor format
0213_20121001_142704_revelle.all.mb58.gz 5.94MB Kongsberg multibeam vendor format
0214_20121001_145712_revelle.all.mb58.gz 5.61MB Kongsberg multibeam vendor format
0215_20121001_152720_revelle.all.mb58.gz 6.03MB Kongsberg multibeam vendor format
0216_20121001_155703_revelle.all.mb58.gz 12.43MB Kongsberg multibeam vendor format
0217_20121001_162707_revelle.all.mb58.gz 14.76MB Kongsberg multibeam vendor format
0218_20121001_165703_revelle.all.mb58.gz 12.80MB Kongsberg multibeam vendor format

Metadata Files: 2

Files File Size Description
RR1212_Multibeam.xml NGDC created ISO metadata
xbt_bag_info.tar.gz 1.8KB Additional cruise information

Ancillary Files: 1

Files File Size Description
xbt.tar.gz 285.5KB Expendable Bathythermograph (XBT) data